Regional Weather Roundup
Issued by NWS

Home | Current Version | Previous Version | Text Only | Print | Product List | Glossary On
Versions: 1 2 3 4 5 6 7 8 9 10 11 12 13 14 15 16 17 18 19 20 21 22 23 24 25 26 27 28 29 30 31 32 33 34 35 36 37 38 39 40 41 42 43 44 45 46 47 48 49 50
535
ASUS44 KOUN 080710
RWROK

WEATHER ROUNDUP FOR OKLAHOMA
NATIONAL WEATHER SERVICE NORMAN OK
100 AM CST MON FEB 08 2016

NOTE: "FAIR" INDICATES FEW OR NO CLOUDS BELOW 12,000 FEET WITH NO
      SIGNIFICANT WEATHER AND/OR OBSTRUCTIONS TO VISIBILITY.

OKZ001>007-009>012-014-015-017-080800-
NORTHWEST OKLAHOMA AND THE PANHANDLE

CITY           SKY/WX    TMP DP  RH WIND       PRES   REMARKS
GAGE           CLOUDY    34  16  47 NW10      30.36R WCI  26
GUYMON         CLEAR     27  15  61 W10       30.41S WCI  17
ENID/WOODRING  CLEAR     39  19  45 NW17G23   30.26S WCI  30
$$

OKZ016-021>023-033>039-044-045-080800-
SOUTHWEST OKLAHOMA

CITY           SKY/WX    TMP DP  RH WIND       PRES   REMARKS
LAWTON/REGL    CLOUDY    46  14  27 NW12G18   30.34R
LAWTON/FT SILL CLOUDY    44  16  31 NW14G21   30.32R
FREDERICK      PTCLDY    39  19  44 NW12      30.34S WCI  32
CLINTON        CLOUDY    41  14  33 NW18      30.36S
HOBART         MOCLDY    38  18  44 NW12      30.36S WCI  30
ALTUS AFB      MOCLDY    38  15  39 NW10      30.37S WCI  30
$$

OKZ018>020-024>031-080800-
CENTRAL OKLAHOMA

CITY           SKY/WX    TMP DP  RH WIND       PRES   REMARKS
OKLAHOMA CITY  CLOUDY    43  16  33 NW18      30.29R
OKC/WILEY POST CLOUDY    41  17  38 NW14      30.29F
OKC/TINKER AFB MOCLDY    43  16  34 NW15      30.26S
STILLWATER     CLEAR     41  18  39 NW15G23   30.25R
GUTHRIE        CLEAR     40  17  39 NW13      30.28S WCI  32
$$

OKZ008-013-054>072-080800-
NORTHEAST OKLAHOMA

CITY           SKY/WX    TMP DP  RH WIND       PRES   REMARKS
TULSA          PTCLDY    42  22  44 NW16      30.17F
TULSA/JONES    CLEAR     43  20  39 NW9G20    30.20S
PONCA CITY     CLEAR     36  21  54 NW12G20   30.23S WCI  28
BARTLESVILLE   PTCLDY    38  20  48 W13G20    30.19S WCI  30
MUSKOGEE       CLEAR     43  21  41 NW14G23   30.19R
$$

OKZ032-040>043-046>053-073>077-080800-
SOUTH CENTRAL/SOUTHEAST OKLAHOMA

CITY           SKY/WX    TMP DP  RH WIND       PRES   REMARKS
ARDMORE/DWNTWN MOCLDY    45  16  31 N6        30.30S
MCALESTER      PTCLDY    45  19  35 NW9       30.21F
$$





USA.gov is the U.S. government's official web portal to all federal, state and local government web resources and services.